Location: Newark
(39.0333°N, 125.7500°E)
Time: 05:42:36
(UTC+00:00)

LightSail 2 - Visible Passes

Search period start: 20 January 2020 00:00
Search period end: 30 January 2020 00:00
Orbit: 703 x 720 km, 24.0° (Epoch: 19 January)

Date Brightness Start Highest point End Pass type
(mag) Time Alt. Az. Time Alt. Az. Time Alt. Az.
20 Jan 7.4 10:23:24 10° SSW 10:25:49 13° S 10:28:00 11° SSE visible
21 Jan 7.5 09:25:48 10° S 09:27:38 12° S 09:29:27 10° SSE visible
21 Jan 7.4 11:09:27 10° SW 11:12:10 15° S 11:12:10 15° S visible
22 Jan 7.4 10:11:16 10° SSW 10:14:03 15° S 10:16:50 10° SE visible
23 Jan 7.5 09:13:14 10° SSW 09:15:49 14° S 09:18:24 10° SE visible
23 Jan 7.4 10:57:56 10° SW 11:00:29 14° S 11:01:38 13° S visible
24 Jan 7.5 09:59:29 10° SW 10:02:15 14° S 10:05:00 10° SSE visible
25 Jan 7.6 10:46:56 10° SSW 10:48:38 12° S 10:50:21 10° S visible
26 Jan 7.6 09:48:04 10° SW 09:50:23 13° S 09:52:43 10° SSE visible
28 Jan 7.9 09:37:29 10° SSW 09:38:28 10° SSW 09:39:27 10° S visible
